Location: Baia Mare
(47.6567°N, 23.5850°E)
Time: 20:19:38

ISS - Pass Details

Date: 03 April 2018
Orbit: 403 x 406 km, 51.6° (Epoch: 18 March)

Event Time Altitude Azimuth Distance (km) Brightness Sun altitude
Rises 21:03:05 0° 286° (WNW) 2,325 2.2 -11.4°
Reaches altitude 10° 21:05:14 10° 294° (WNW) 1,465 0.6 -11.7°
Maximum altitude 21:08:22 41° 6° (N) 603 -2.9 -12.2°
Enters shadow 21:10:40 16° 73° (ENE) 1,151 -2.0 -12.5°
